Theta_e
278 274 270 272 272 273 272 268 267 271 276 273 271 272 275 279 276 275 275 276 278 279 281 282 283 282 282 282 283 283 284 285 285 285 284 284 284 286 288 290 293 294 297 298
275 271 274 277 276 273 272 268 267 272 275 274 271 272 276 277 276 276 276 275 277 277 278 280 281 281 280 281 281 282 284 284 285 285 285 285 285 286 288 290 292 296 298 301
272 274 278 277 274 273 272 269 267 268 273 273 272 269 271 275 276 277 277 277 277 277 277 278 279 279 280 279 280 282 283 284 284 285 285 286 286 286 286 287 289 292 294 297
273 277 276 274 273 273 268 274 273 271 265 261 270 261 268 272 274 275 272 274 275 276 278 279 279 279 280 281 281 282 283 283 284 284 283 282 282 282 284 285 287 290 292 295
274 274 273 273 274 274 272 275 272 272 262 260 266 258 266 271 271 274 273 275 275 277 277 278 278 280 281 281 280 281 282 282 283 283 283 282 282 283 284 285 286 288 290 294
274 277 275 273 276 276 276 271 270 269 265 255 260 260 263 267 271 271 273 275 276 277 277 278 280 281 281 282 282 281 281 281 282 283 282 282 281 282 282 283 284 286 289 292
273 274 275 277 272 274 271 263 260 263 259 258 264 260 265 270 273 273 274 275 276 276 277 278 279 279 280 280 280 281 281 280 281 281 281 282 281 281 281 282 283 284 287 289
266 270 272 275 268 264 269 260 258 256 258 260 265 257 265 271 273 274 276 276 276 277 278 278 279 279 280 280 280 280 280 280 281 281 281 282 282 282 282 283 284 285 286 289
263 269 274 276 275 270 268 263 267 254 256 254 261 263 268 271 272 273 274 274 275 276 277 278 279 279 279 279 279 280 280 280 280 281 281 281 281 281 281 282 284 285 287 290
267 261 272 274 276 274 268 269 260 256 253 255 260 256 263 265 270 271 272 272 274 276 277 277 278 278 279 279 280 280 280 279 280 280 280 281 281 282 282 283 283 284 286 289
263 262 269 272 268 264 265 259 260 260 257 253 253 261 263 265 266 266 268 272 274 275 276 276 277 278 278 279 279 280 279 279 279 280 280 280 280 281 282 282 283 284 285 288
269 261 261 267 267 263 263 260 259 259 255 253 252 260 268 266 265 261 266 272 274 275 275 276 276 277 278 279 279 278 278 278 278 279 279 279 280 281 281 281 282 284 284 287
267 262 263 268 266 268 260 256 256 258 258 256 252 261 267 258 263 266 271 272 273 274 274 275 276 276 277 277 277 278 278 278 278 279 279 279 279 279 279 281 282 284 285 286
276 264 265 268 271 262 259 261 258 261 254 254 259 265 271 270 271 272 272 272 272 272 273 274 275 276 276 276 276 276 277 278 278 278 278 278 278 279 280 281 282 283 285 286
271 264 267 269 270 269 268 266 260 262 262 260 262 258 268 271 271 271 270 271 270 270 272 273 274 274 275 275 275 276 276 277 278 278 278 278 279 279 280 281 282 283 284 286
271 265 266 262 269 265 264 267 267 264 266 265 266 266 272 272 264 270 270 270 269 270 272 273 273 273 274 274 274 276 277 277 278 278 278 279 279 279 280 281 282 283 284 286
268 266 264 263 268 268 263 263 262 259 255 259 258 269 254 267 269 269 269 268 268 270 272 272 272 273 273 274 275 275 276 278 278 278 278 279 280 279 280 281 282 282 284 286
268 266 267 263 266 268 271 261 262 265 265 260 262 264 263 266 268 269 269 267 269 271 271 272 273 273 274 275 275 276 277 278 278 278 279 279 280 279 280 281 281 282 284 286
272 269 264 261 261 269 269 267 264 263 264 259 261 263 262 266 265 263 266 271 271 271 272 273 273 274 274 275 275 275 278 280 283 280 280 280 280 279 280 280 281 283 285 286
272 270 265 264 260 264 271 270 268 266 261 267 261 263 261 260 265 268 271 270 270 272 273 272 273 274 274 274 275 277 279 280 283 282 280 281 281 280 280 281 282 284 287 288
265 262 262 264 262 267 272 270 269 264 269 265 261 262 255 259 263 269 269 270 271 272 272 273 273 273 274 275 277 278 279 281 283 282 282 282 282 282 282 283 284 287 288 289
269 266 263 264 260 267 271 270 268 270 267 264 260 259 258 263 266 267 268 269 269 269 271 272 272 272 274 276 277 277 278 283 284 283 283 284 284 285 285 284 286 288 289 289
270 274 272 272 274 273 272 272 272 270 268 266 261 264 262 264 267 268 268 269 269 269 270 272 272 272 274 276 278 277 279 286 284 283 283 284 285 285 286 288 288 288 290 290
272 270 271 271 275 273 275 274 272 272 270 270 267 263 265 264 268 268 268 268 268 269 270 272 272 271 272 276 278 278 280 285 283 283 285 284 286 286 289 290 290 289 291 293
274 272 272 269 273 274 274 272 272 272 271 271 270 268 266 265 267 267 267 267 268 268 270 271 271 271 273 275 277 278 280 283 285 282 284 286 287 288 287 289 290 291 294 296
272 274 273 280 277 274 271 272 272 270 269 268 265 266 268 265 266 267 266 268 268 270 269 270 271 272 274 275 277 277 279 280 284 287 286 287 287 283 287 288 288 295 296 297
Wind_Speed
6 10 6 6 2 1 6 5 7 9 8 16 5 16 20 17 6 6 8 8 7 7 2 3 4 5 7 7 6 6 7 8 5 6 6 4 4 5 3 4 12 13 7 8
6 3 3 6 3 5 4 3 7 13 3 9 9 19 13 6 4 7 9 6 6 2 4 5 5 5 7 7 7 7 8 7 8 7 6 4 4 6 5 4 6 9 10 10
5 2 5 2 1 10 4 5 4 7 13 3 11 8 8 5 3 4 4 5 3 3 4 6 7 7 7 8 8 8 10 10 7 9 7 5 4 4 4 4 5 6 11 10
1 2 4 2 3 4 5 6 12 13 4 3 7 8 6 6 6 3 2 1 0 3 4 5 7 7 8 11 7 8 10 10 10 10 8 10 9 9 7 7 6 8 9 11
1 5 4 4 3 1 11 15 13 2 4 5 6 5 10 4 4 6 8 4 6 6 7 8 9 11 9 10 8 8 10 11 10 10 10 9 11 8 7 7 8 9 9 9
2 1 2 2 6 3 14 5 2 4 4 5 5 6 9 4 5 5 5 7 7 8 9 11 13 14 14 13 13 11 10 12 11 10 11 12 11 10 9 9 8 7 7 8
8 1 2 3 4 1 9 8 7 11 9 6 1 3 14 7 10 8 6 8 9 9 13 17 20 18 16 15 14 12 16 15 14 13 13 14 13 13 13 11 8 7 7 7
4 7 3 4 5 4 5 6 7 6 5 7 5 9 10 6 6 4 5 8 9 15 18 21 22 21 20 19 17 16 15 18 17 15 15 14 14 10 9 10 8 7 7 8
4 6 2 3 3 5 3 6 2 4 0 3 5 10 12 7 9 8 9 10 15 22 22 24 24 20 20 18 18 18 17 17 18 18 15 15 15 14 12 13 11 9 10 10
3 7 2 2 3 3 6 4 4 5 5 8 5 9 10 7 12 10 10 13 19 21 24 23 22 22 20 20 18 18 17 17 18 18 15 15 16 15 14 13 13 13 11 12
5 4 3 3 5 8 2 3 5 5 5 5 7 12 10 11 11 11 11 15 20 24 24 23 23 22 21 20 19 16 17 19 18 18 18 16 16 17 15 13 13 13 12 12
3 5 6 7 1 3 4 7 6 6 7 2 4 16 6 10 10 7 14 17 20 22 24 24 24 23 22 19 16 20 20 19 18 18 18 17 17 16 15 15 15 14 13 13
5 1 7 4 3 5 2 3 4 5 3 9 6 16 5 4 8 10 16 18 22 24 25 23 22 22 20 20 18 18 18 19 19 18 17 16 17 16 16 16 15 15 14 14
6 3 8 9 9 5 2 5 4 7 5 5 14 20 29 20 22 23 21 22 25 24 24 23 24 22 21 20 19 19 20 18 18 17 16 16 16 16 15 15 15 15 14 14
5 5 6 15 21 14 17 15 9 15 11 9 8 10 24 24 24 23 22 26 26 25 26 27 26 24 23 21 19 19 19 18 16 17 17 16 15 16 16 16 16 15 14 14
2 5 4 8 6 7 10 15 16 19 17 20 29 34 26 21 9 19 23 26 24 26 30 31 29 28 24 23 22 21 19 18 16 16 17 15 15 16 17 16 16 15 14 14
5 1 5 9 7 12 6 10 11 5 5 8 6 15 3 14 18 21 24 23 23 28 31 31 29 27 25 25 23 22 21 19 17 16 16 15 15 16 16 16 16 16 15 13
5 2 2 8 11 6 6 3 5 11 11 14 12 15 10 14 17 20 19 19 25 29 31 29 25 27 25 25 24 23 21 20 18 16 15 14 15 16 16 16 16 14 14 14
4 3 3 4 2 13 3 4 6 7 11 6 11 10 9 14 14 11 6 16 24 26 26 22 23 26 25 25 24 23 21 18 10 12 13 14 15 16 16 16 15 14 13 13
4 4 3 2 1 7 6 3 5 5 8 7 8 9 9 9 14 11 23 25 27 26 25 26 27 25 23 25 24 21 18 17 4 7 10 13 14 15 15 14 14 14 12 12
2 0 6 5 7 15 7 6 6 4 9 5 7 8 4 2 7 19 22 21 24 24 28 27 25 22 23 24 23 20 17 11 3 7 9 11 13 13 13 12 12 11 11 12
10 10 7 4 3 12 7 4 7 6 2 4 5 6 6 9 15 13 18 22 26 28 31 29 24 24 24 22 21 20 17 10 6 8 8 10 12 10 11 13 13 11 11 10
5 9 6 14 12 1 11 6 4 5 5 4 3 5 6 10 13 13 15 19 22 23 24 23 23 24 24 24 21 21 21 5 5 5 7 7 9 10 12 12 13 10 9 8
6 6 6 2 10 13 13 9 5 5 4 4 4 5 4 9 13 13 13 17 17 20 22 22 24 24 24 25 22 20 17 9 2 1 3 5 8 10 7 9 9 8 7 9
4 9 6 10 18 15 16 9 7 6 4 3 3 5 6 6 12 9 14 16 16 18 20 21 22 21 22 23 21 20 18 14 4 1 1 2 2 6 6 6 7 8 6 7
9 11 10 13 9 5 4 7 7 6 5 4 2 5 5 3 10 10 11 15 14 17 17 21 21 21 22 21 20 21 19 16 10 3 3 3 2 2 4 5 4 6 6 9
Wind_Direction
17 56 23 316 6 233 262 244 258 268 301 337 309 293 297 302 214 226 193 201 192 179 190 344 9 344 325 303 315 300 299 302 306 309 302 286 283 289 278 269 306 304 289 287
31 64 264 291 119 346 292 290 286 287 311 322 311 303 303 319 207 181 182 197 186 137 7 351 321 312 308 296 295 298 306 302 304 301 285 263 270 282 272 272 273 280 275 280
109 271 312 8 12 356 296 226 261 281 324 321 318 317 340 330 12 104 103 129 95 41 327 314 318 305 294 282 276 294 302 298 282 293 291 284 272 283 291 292 292 298 309 303
110 6 354 320 50 32 289 204 315 308 36 322 29 293 312 329 325 99 96 150 69 307 294 263 282 292 300 305 278 281 287 285 279 281 286 282 278 278 275 276 280 283 284 288
292 2 2 10 358 120 258 313 304 271 92 56 348 56 270 312 259 231 219 255 287 277 266 292 297 290 286 292 264 269 280 280 268 268 270 275 272 265 268 269 271 274 279 273
281 53 73 269 321 221 286 335 343 57 84 33 248 101 281 265 248 278 240 274 298 314 311 297 296 306 306 304 302 294 283 279 272 262 263 264 261 270 268 266 264 267 279 282
338 291 43 17 331 7 7 17 346 360 6 239 260 30 244 269 275 243 233 281 300 286 303 315 322 316 303 300 295 286 292 289 280 271 267 263 255 260 256 257 256 255 268 278
32 330 26 346 123 191 16 110 137 250 285 293 350 236 258 230 238 260 264 272 288 313 313 315 314 312 311 308 300 292 281 282 280 271 263 260 258 253 248 247 247 247 251 253
28 272 113 43 104 117 316 50 188 94 233 355 254 289 293 229 268 293 287 301 305 317 311 316 313 304 303 299 295 290 283 277 269 269 265 258 259 248 247 248 245 246 247 254
191 314 151 134 84 43 107 156 32 11 3 303 290 281 247 278 253 278 299 298 303 304 309 309 306 306 304 299 294 286 281 278 277 266 262 259 255 246 243 242 237 242 243 242
126 92 280 102 188 175 66 20 47 118 131 184 299 265 221 233 237 251 270 286 303 308 311 306 305 306 298 293 291 288 279 276 275 266 261 254 255 251 240 239 240 239 242 239
205 149 275 235 287 151 135 178 136 129 268 203 157 270 239 232 247 265 273 296 301 306 304 303 303 300 302 299 292 291 285 278 271 263 261 253 248 244 243 241 239 231 233 235
192 281 313 331 22 355 182 212 126 118 96 208 148 262 283 284 271 270 297 305 305 307 303 303 302 304 304 304 296 287 282 279 270 263 254 248 244 239 235 233 230 228 226 229
144 184 195 215 241 134 189 188 206 137 151 207 227 282 295 304 310 314 313 311 308 308 305 307 310 311 309 305 301 293 288 279 269 260 253 245 239 236 231 231 227 224 221 224
134 246 212 260 265 268 264 256 191 202 203 200 268 222 277 294 302 305 310 308 312 308 313 314 312 313 313 311 303 294 286 277 267 257 250 240 233 228 226 223 222 220 219 219
161 271 346 280 266 223 251 247 220 227 246 254 263 272 278 283 296 302 306 307 310 311 312 315 315 317 316 312 306 297 290 279 267 257 249 235 223 219 218 217 212 215 217 215
169 268 4 272 323 306 299 221 184 201 217 177 212 265 280 309 304 307 308 306 306 311 315 316 317 315 315 313 307 300 294 282 266 250 241 228 214 211 210 211 203 207 214 207
156 131 184 282 320 345 241 186 169 205 242 211 279 275 274 278 286 294 289 291 309 314 314 315 316 314 313 310 307 302 294 282 260 239 226 215 203 205 201 203 200 199 206 207
155 108 289 305 240 282 276 203 176 166 280 200 220 259 270 283 290 267 248 309 307 307 310 311 312 311 312 312 310 305 301 299 278 217 203 196 194 197 194 198 194 194 198 201
108 101 140 349 262 272 233 192 132 110 283 203 194 251 280 322 333 321 331 319 312 313 316 317 317 317 317 316 311 310 308 310 223 177 178 186 183 191 190 189 189 196 189 196
142 74 210 225 255 274 255 149 145 56 263 211 179 237 240 259 226 298 305 309 308 313 315 319 319 322 321 318 321 318 317 319 156 171 171 173 179 181 183 184 187 192 186 194
176 162 206 188 268 290 139 104 185 216 262 196 201 223 231 253 281 292 299 310 314 323 323 325 325 327 327 329 326 329 324 306 162 170 167 172 175 179 179 183 180 183 188 192
243 205 184 197 227 118 197 227 218 170 196 244 181 241 228 270 290 305 305 312 314 319 319 324 326 327 332 337 338 335 331 107 150 156 170 171 163 183 178 182 171 171 193 189
233 168 232 13 249 246 248 230 208 180 204 213 210 227 235 265 297 307 307 311 316 321 320 327 328 333 335 338 339 340 339 324 106 270 164 158 179 185 178 164 169 171 187 181
189 147 211 258 279 271 256 225 200 182 198 206 221 222 249 266 301 305 312 311 315 316 323 328 329 331 331 336 341 346 346 348 289 188 357 203 174 190 168 172 170 177 187 177
189 195 188 253 217 194 216 174 169 173 186 201 204 321 292 256 293 309 309 308 313 324 325 327 331 333 335 338 346 349 350 351 343 232 231 215 216 151 166 163 156 206 172 185